• In Moldova, Republic
  • List of Countries
  • For 7 days
  • Water Temperature
  • Satellite Maps
  • Weather Map
  • Weather Widgets
  • user-avatar
    Login

    Hourly Weather Yulara

    Today, 22 January, Tuesday

    Time Temperature Precipitation Wind Pressure Humidity
    00:00 +37°C° 0 mm 5 mps 714 mmHg 21%
    01:00 +36°C° 0 mm 5 mps 714 mmHg 22%
    02:00 +36°C° 0 mm 6 mps 714 mmHg 24%
    03:00 +35°C° 0 mm 7 mps 714 mmHg 28%
    04:00 +34°C° 0 mm 6 mps 714 mmHg 29%
    05:00 +33°C° 0 mm 6 mps 714 mmHg 31%
    06:00 +33°C° 0 mm 5 mps 714 mmHg 33%
    07:00 +35°C° 0 mm 5 mps 714 mmHg 30%
    08:00 +37°C° 0 mm 5 mps 715 mmHg 27%
    09:00 +40°C° 0 mm 4 mps 715 mmHg 23%
    10:00 +41°C° 0 mm 4 mps 715 mmHg 20%
    11:00 +43°C° 0 mm 4 mps 715 mmHg 17%
    12:00 +44°C° 0 mm 4 mps 714 mmHg 15%
    13:00 +44°C° 0 mm 3 mps 714 mmHg 14%
    14:00 +44°C° 0 mm 3 mps 713 mmHg 14%
    15:00 +45°C° 0 mm 2 mps 713 mmHg 12%
    16:00 +45°C° 0 mm 3 mps 713 mmHg 12%
    17:00 +44°C° 0 mm 3 mps 713 mmHg 12%
    18:00 +44°C° 0 mm 3 mps 713 mmHg 12%
    19:00 +43°C° 0 mm 3 mps 713 mmHg 14%
    20:00 +42°C° 0 mm 3 mps 713 mmHg 16%
    21:00 +40°C° 0 mm 3 mps 713 mmHg 18%
    22:00 +39°C° 0 mm 3 mps 713 mmHg 19%
    23:00 +38°C° 0 mm 3 mps 713 mmHg 20%

    Tomorrow, 23 January, Wednesday

    Time Temperature Precipitation Wind Pressure Humidity
    00:00 +38°C° 0 mm 2 mps 713 mmHg 22%
    01:00 +37°C° 0 mm 2 mps 713 mmHg 24%
    02:00 +36°C° 0 mm 2 mps 713 mmHg 27%
    03:00 +36°C° 0 mm 2 mps 713 mmHg 30%
    04:00 +36°C° 0 mm 2 mps 713 mmHg 29%
    05:00 +35°C° 0 mm 2 mps 714 mmHg 29%
    06:00 +35°C° 0 mm 3 mps 714 mmHg 28%
    07:00 +37°C° 0 mm 4 mps 714 mmHg 25%
    08:00 +40°C° 0 mm 5 mps 715 mmHg 22%
    09:00 +42°C° 0 mm 6 mps 715 mmHg 18%
    10:00 +44°C° 0 mm 6 mps 715 mmHg 17%
    11:00 +45°C° 0 mm 6 mps 715 mmHg 15%
    12:00 +46°C° 0 mm 6 mps 714 mmHg 14%
    13:00 +46°C° 0 mm 5 mps 714 mmHg 13%
    14:00 +46°C° 0 mm 5 mps 713 mmHg 12%
    15:00 +45°C° 0 mm 4 mps 713 mmHg 12%
    16:00 +45°C° 0 mm 4 mps 713 mmHg 12%
    17:00 +44°C° 0 mm 3 mps 712 mmHg 12%
    18:00 +43°C° 0 mm 2 mps 712 mmHg 13%
    19:00 +43°C° 0 mm 3 mps 712 mmHg 13%
    20:00 +42°C° 0 mm 3 mps 713 mmHg 14%
    21:00 +40°C° 0 mm 3 mps 713 mmHg 14%
    22:00 +40°C° 0 mm 5 mps 713 mmHg 15%
    23:00 +40°C° 0 mm 6 mps 713 mmHg 15%

    Day after tomorrow, 24 January, Thursday

    Time Temperature Precipitation Wind Pressure Humidity
    00:00 +39°C° 0 mm 7 mps 713 mmHg 16%
    01:00 +39°C° 0 mm 7 mps 713 mmHg 18%
    02:00 +38°C° 0 mm 7 mps 713 mmHg 19%
    03:00 +36°C° 0 mm 7 mps 712 mmHg 21%
    04:00 +35°C° 0 mm 6 mps 712 mmHg 23%
    05:00 +35°C° 0 mm 5 mps 713 mmHg 25%
    06:00 +34°C° 0 mm 4 mps 713 mmHg 28%
    07:00 +36°C° 0 mm 4 mps 713 mmHg 26%
    08:00 +38°C° 0 mm 4 mps 714 mmHg 25%
    09:00 +41°C° 0 mm 5 mps 714 mmHg 23%
    10:00 +42°C° 0 mm 5 mps 714 mmHg 21%
    11:00 +45°C° 0 mm 6 mps 714 mmHg 18%
    12:00 +46°C° 0 mm 6 mps 714 mmHg 15%
    13:00 +46°C° 0 mm 6 mps 713 mmHg 16%
    14:00 +46°C° 0 mm 5 mps 712 mmHg 16%
    15:00 +46°C° 0 mm 5 mps 712 mmHg 16%
    16:00 +45°C° 0 mm 4 mps 712 mmHg 16%
    17:00 +44°C° 0 mm 4 mps 712 mmHg 15%
    18:00 +44°C° 0 mm 3 mps 712 mmHg 15%
    19:00 +42°C° 0 mm 2 mps 712 mmHg 16%
    20:00 +40°C° 0 mm 2 mps 712 mmHg 18%
    21:00 +39°C° 0 mm 2 mps 712 mmHg 20%
    22:00 +39°C° 0 mm 2 mps 712 mmHg 20%
    23:00 +38°C° 0 mm 2 mps 712 mmHg 20%

    25 January, Friday

    Time Temperature Precipitation Wind Pressure Humidity
    00:00 +38°C° 0 mm 3 mps 713 mmHg 20%
    01:00 +37°C° 0 mm 3 mps 712 mmHg 22%
    02:00 +36°C° 0 mm 4 mps 712 mmHg 23%
    03:00 +35°C° 0 mm 5 mps 711 mmHg 25%
    04:00 +35°C° 0 mm 5 mps 712 mmHg 28%
    05:00 +34°C° 0 mm 4 mps 712 mmHg 31%
    06:00 +34°C° 0 mm 4 mps 712 mmHg 34%
    07:00 +36°C° 0 mm 4 mps 713 mmHg 30%
    08:00 +39°C° 0 mm 5 mps 713 mmHg 26%
    09:00 +41°C° 0 mm 5 mps 714 mmHg 22%
    10:00 +44°C° 0 mm 6 mps 714 mmHg 19%
    11:00 +45°C° 0 mm 6 mps 714 mmHg 17%
    12:00 +47°C° 0 mm 7 mps 714 mmHg 14%
    13:00 +46°C° 0 mm 6 mps 713 mmHg 15%
    14:00 +45°C° 0 mm 6 mps 712 mmHg 16%
    15:00 +45°C° 0 mm 5 mps 712 mmHg 17%
    16:00 +45°C° 0 mm 5 mps 712 mmHg 17%
    17:00 +45°C° 0 mm 5 mps 712 mmHg 18%
    18:00 +43°C° 0 mm 5 mps 712 mmHg 18%
    19:00 +42°C° 0 mm 4 mps 713 mmHg 20%
    20:00 +40°C° 0 mm 3 mps 713 mmHg 22%
    21:00 +39°C° 0 mm 3 mps 713 mmHg 24%
    22:00 +38°C° 0 mm 3 mps 713 mmHg 26%
    23:00 +37°C° 0 mm 3 mps 713 mmHg 28%

    26 January, Saturday

    Time Temperature Precipitation Wind Pressure Humidity
    00:00 +36°C° 0 mm 4 mps 713 mmHg 31%
    01:00 +35°C° 0 mm 3 mps 713 mmHg 31%
    02:00 +35°C° 0 mm 3 mps 713 mmHg 32%
    03:00 +34°C° 0 mm 2 mps 713 mmHg 33%
    04:00 +34°C° 0 mm 2 mps 713 mmHg 34%
    05:00 +32°C° 0 mm 2 mps 713 mmHg 35%
    06:00 +33°C° 0 mm 3 mps 714 mmHg 37%
    07:00 +34°C° 0 mm 4 mps 714 mmHg 33%
    08:00 +36°C° 0 mm 4 mps 715 mmHg 29%
    09:00 +39°C° 0 mm 5 mps 715 mmHg 25%
    10:00 +41°C° 0 mm 4 mps 714 mmHg 22%
    11:00 +42°C° 0 mm 4 mps 714 mmHg 19%
    12:00 +44°C° 0 mm 3 mps 713 mmHg 16%
    13:00 +45°C° 0 mm 2 mps 713 mmHg 15%
    14:00 +45°C° 0 mm 2 mps 712 mmHg 14%
    15:00 +46°C° 0 mm 2 mps 711 mmHg 12%
    16:00 +45°C° 0 mm 2 mps 711 mmHg 13%
    17:00 +45°C° 0 mm 3 mps 712 mmHg 13%
    18:00 +44°C° 0 mm 3 mps 712 mmHg 13%
    19:00 +44°C° 0 mm 6 mps 712 mmHg 18%
    20:00 +42°C° 0 mm 9 mps 713 mmHg 22%
    21:00 +39°C° 0 mm 11 mps 713 mmHg 27%
    22:00 +38°C° 0 mm 11 mps 713 mmHg 29%
    23:00 +36°C° 0 mm 11 mps 713 mmHg 30%

    27 January, Sunday

    Time Temperature Precipitation Wind Pressure Humidity
    00:00 +34°C° 0 mm 11 mps 714 mmHg 32%
    01:00 +34°C° 0 mm 11 mps 713 mmHg 33%
    02:00 +33°C° 0 mm 10 mps 713 mmHg 33%
    03:00 +33°C° 0 mm 10 mps 713 mmHg 34%
    04:00 +31°C° 0 mm 9 mps 714 mmHg 35%
    05:00 +29°C° 0 mm 9 mps 714 mmHg 36%
    06:00 +28°C° 0 mm 9 mps 715 mmHg 37%
    07:00 +29°C° 0 mm 9 mps 715 mmHg 37%
    08:00 +31°C° 0 mm 9 mps 716 mmHg 36%
    09:00 +32°C° 0 mm 10 mps 717 mmHg 35%
    10:00 +32°C° 0.1 mm 9 mps 717 mmHg 33%
    11:00 +33°C° 0.1 mm 8 mps 717 mmHg 31%
    12:00 +34°C° 0.1 mm 8 mps 717 mmHg 29%
    13:00 +34°C° 0 mm 8 mps 717 mmHg 30%
    14:00 +34°C° 0 mm 8 mps 716 mmHg 31%
    15:00 +33°C° 0 mm 8 mps 716 mmHg 32%
    16:00 +32°C° 0 mm 8 mps 716 mmHg 35%
    17:00 +32°C° 0 mm 8 mps 716 mmHg 38%
    18:00 +30°C° 0 mm 7 mps 716 mmHg 41%
    19:00 +29°C° 0 mm 7 mps 716 mmHg 44%
    20:00 +28°C° 0 mm 7 mps 717 mmHg 46%
    21:00 +27°C° 0 mm 7 mps 717 mmHg 49%
    22:00 +27°C° 0 mm 7 mps 717 mmHg 50%
    23:00 +27°C° 0 mm 7 mps 716 mmHg 51%
    Show more